Tracking 31027 objects as of 19-Jul-2025
HD Live streaming from Space Station
objects crossing your sky now

COSMOS 531

Track COSMOS 531 now!
10-day predictions
COSMOS 531 is classified as:


NORAD ID: 6266
Int'l Code: 1972-087D
Perigee: 1,427.9 km
Apogee: 1,475.4 km
Inclination: 74.0 °
Period: 114.8 minutes
Semi major axis: 7822 km
RCS: 0.7441 m2 (medium)
Launch date: November 1, 1972
Source: Commonwealth of Independent States (former USSR) (CIS)
Launch site: PLESETSK MISSILE AND SPACE COMPLEX (PKMTR)
Your satellite tracking list
FENGYUN 1C DEB
Track 1 satellite(s)




NASA's NSSDC Master Catalog

Two Line Element Set (TLE):
1 06266U 72087D   25199.50841019 -.00000002  00000-0  87733-4 0  9993
2 06266  74.0320 202.5850 0030371  68.9619  49.0195 12.54798328414414
Source of the keplerian elements: AFSPC